Time,TemperatureF,DewpointF,PressureIn,WindDirection,WindDirectionDegrees,WindSpeedMPH,WindSpeedGustMPH,Humidity,HourlyPrecipIn,Conditions,Clouds,dailyrainin,SoftwareType,DateUTC
2013-06-02 00:04:00,51.8,45.8,29.80,NNE,32,1.0,1.0,80,0.00,,,0.00,Wunderground v.1.15,2013-06-02 05:04:00,
2013-06-02 00:09:00,51.8,45.8,29.80,ENE,63,1.0,3.0,80,0.00,,,0.00,Wunderground v.1.15,2013-06-02 05:09:00,
2013-06-02 00:14:00,51.8,45.2,29.80,ENE,57,2.0,4.0,78,0.00,,,0.00,Wunderground v.1.15,2013-06-02 05:14:00,
2013-06-02 00:19:00,51.7,45.4,29.80,NE,41,3.0,4.0,79,0.00,,,0.00,Wunderground v.1.15,2013-06-02 05:19:00,
2013-06-02 00:24:00,51.7,45.4,29.80,ENE,63,2.0,3.0,79,0.00,,,0.00,Wunderground v.1.15,2013-06-02 05:24:00,
2013-06-02 00:30:00,51.7,45.1,29.80,NNE,19,2.0,2.0,78,0.00,,,0.00,Wunderground v.1.15,2013-06-02 05:30:00,
2013-06-02 00:35:00,51.6,45.3,29.80,NNE,32,1.0,2.0,79,0.00,,,0.00,Wunderground v.1.15,2013-06-02 05:35:00,
2013-06-02 00:40:00,51.6,45.3,29.80,NNE,23,1.0,1.0,79,0.00,,,0.00,Wunderground v.1.15,2013-06-02 05:40:00,
2013-06-02 00:45:00,51.6,45.3,29.81,WNW,295,2.0,5.0,79,0.00,,,0.00,Wunderground v.1.15,2013-06-02 05:45:00,
2013-06-02 00:50:00,51.6,45.0,29.81,NNE,27,2.0,2.0,78,0.00,,,0.00,Wunderground v.1.15,2013-06-02 05:50:00,
2013-06-02 00:56:00,51.6,45.0,29.81,NNE,26,1.0,2.0,78,0.00,,,0.00,Wunderground v.1.15,2013-06-02 05:56:00,
2013-06-02 01:01:00,51.6,44.6,29.81,ENE,63,1.0,5.0,77,0.00,,,0.00,Wunderground v.1.15,2013-06-02 06:01:00,
2013-06-02 01:06:00,51.7,43.7,29.81,NNW,344,3.0,5.0,74,0.00,,,0.00,Wunderground v.1.15,2013-06-02 06:06:00,
2013-06-02 01:11:00,51.6,43.2,29.82,NE,43,3.0,3.0,73,0.00,,,0.00,Wunderground v.1.15,2013-06-02 06:11:00,
2013-06-02 01:16:00,51.5,43.1,29.81,NE,51,2.0,6.0,73,0.00,,,0.00,Wunderground v.1.15,2013-06-02 06:16:00,
2013-06-02 01:22:00,51.5,43.8,29.82,North,355,2.0,3.0,75,0.00,,,0.00,Wunderground v.1.15,2013-06-02 06:22:00,
2013-06-02 01:27:00,51.5,43.8,29.82,NNE,18,2.0,3.0,75,0.00,,,0.00,Wunderground v.1.15,2013-06-02 06:27:00,
2013-06-02 01:32:00,51.5,44.2,29.82,North,350,2.0,2.0,76,0.00,,,0.00,Wunderground v.1.15,2013-06-02 06:32:00,
2013-06-02 01:37:00,51.5,43.8,29.82,NE,43,1.0,2.0,75,0.00,,,0.00,Wunderground v.1.15,2013-06-02 06:37:00,
2013-06-02 01:42:00,51.5,44.2,29.82,NNE,16,1.0,2.0,76,0.00,,,0.00,Wunderground v.1.15,2013-06-02 06:42:00,
2013-06-02 01:47:00,51.4,43.7,29.81,NE,52,1.0,3.0,75,0.00,,,0.00,Wunderground v.1.15,2013-06-02 06:47:00,
2013-06-02 01:52:00,51.2,43.5,29.81,East,91,3.0,5.0,75,0.00,,,0.00,Wunderground v.1.15,2013-06-02 06:52:00,
2013-06-02 01:57:00,51.1,43.4,29.82,NE,39,3.0,5.0,75,0.00,,,0.00,Wunderground v.1.15,2013-06-02 06:57:00,
2013-06-02 02:02:00,51.0,43.7,29.82,ENE,61,2.0,4.0,76,0.00,,,0.00,Wunderground v.1.15,2013-06-02 07:02:00,
2013-06-02 02:07:00,50.9,43.3,29.82,NE,40,2.0,4.0,75,0.00,,,0.00,Wunderground v.1.15,2013-06-02 07:07:00,
2013-06-02 02:12:00,50.9,42.6,29.83,ENE,58,3.0,4.0,73,0.00,,,0.00,Wunderground v.1.15,2013-06-02 07:12:00,
2013-06-02 02:18:00,50.8,42.5,29.83,ENE,67,3.0,4.0,73,0.00,,,0.00,Wunderground v.1.15,2013-06-02 07:18:00,
2013-06-02 02:23:00,50.8,42.5,29.83,NE,51,2.0,5.0,73,0.00,,,0.00,Wunderground v.1.15,2013-06-02 07:23:00,
2013-06-02 02:28:00,50.7,42.4,29.83,ESE,115,2.0,5.0,73,0.00,,,0.00,Wunderground v.1.15,2013-06-02 07:28:00,
2013-06-02 02:33:00,50.6,43.0,29.83,NNE,20,2.0,2.0,75,0.00,,,0.00,Wunderground v.1.15,2013-06-02 07:33:00,
2013-06-02 02:38:00,50.6,43.0,29.83,NE,44,2.0,3.0,75,0.00,,,0.00,Wunderground v.1.15,2013-06-02 07:38:00,
2013-06-02 02:44:00,50.5,42.9,29.83,ENE,64,2.0,2.0,75,0.00,,,0.00,Wunderground v.1.15,2013-06-02 07:44:00,
2013-06-02 02:49:00,50.4,42.8,29.83,East,96,2.0,2.0,75,0.00,,,0.00,Wunderground v.1.15,2013-06-02 07:49:00,
2013-06-02 02:54:00,50.4,42.8,29.83,NE,56,2.0,2.0,75,0.00,,,0.00,Wunderground v.1.15,2013-06-02 07:54:00,
2013-06-02 02:59:00,50.3,42.7,29.84,NE,41,2.0,3.0,75,0.00,,,0.00,Wunderground v.1.15,2013-06-02 07:59:00,
2013-06-02 03:04:00,50.2,42.6,29.84,NW,321,2.0,3.0,75,0.00,,,0.00,Wunderground v.1.15,2013-06-02 08:04:00,
2013-06-02 03:10:00,50.2,43.3,29.84,ENE,70,1.0,3.0,77,0.00,,,0.00,Wunderground v.1.15,2013-06-02 08:10:00,
2013-06-02 03:16:00,50.1,42.8,29.84,ENE,62,2.0,3.0,76,0.00,,,0.00,Wunderground v.1.15,2013-06-02 08:16:00,
2013-06-02 03:21:00,50.2,42.9,29.84,NNE,21,2.0,2.0,76,0.00,,,0.00,Wunderground v.1.15,2013-06-02 08:21:00,
2013-06-02 03:26:00,50.2,42.9,29.84,NE,49,1.0,2.0,76,0.00,,,0.00,Wunderground v.1.15,2013-06-02 08:26:00,
2013-06-02 03:32:00,50.2,43.3,29.84,East,79,1.0,1.0,77,0.00,,,0.00,Wunderground v.1.15,2013-06-02 08:32:00,
2013-06-02 03:37:00,50.1,43.2,29.84,ENE,75,1.0,2.0,77,0.00,,,0.00,Wunderground v.1.15,2013-06-02 08:37:00,
2013-06-02 03:42:00,50.2,43.6,29.84,North,8,1.0,1.0,78,0.00,,,0.00,Wunderground v.1.15,2013-06-02 08:42:00,
2013-06-02 03:47:00,50.1,43.2,29.84,NE,47,1.0,4.0,77,0.00,,,0.00,Wunderground v.1.15,2013-06-02 08:47:00,
2013-06-02 03:52:00,50.1,43.2,29.84,East,98,1.0,2.0,77,0.00,,,0.00,Wunderground v.1.15,2013-06-02 08:52:00,
2013-06-02 03:57:00,50.1,43.2,29.84,East,84,1.0,2.0,77,0.00,,,0.00,Wunderground v.1.15,2013-06-02 08:57:00,
2013-06-02 04:02:00,50.1,43.5,29.84,NE,46,1.0,1.0,78,0.00,,,0.00,Wunderground v.1.15,2013-06-02 09:02:00,
2013-06-02 04:07:00,50.1,43.2,29.85,NNE,16,1.0,3.0,77,0.00,,,0.00,Wunderground v.1.15,2013-06-02 09:07:00,
2013-06-02 04:12:00,50.2,43.6,29.85,East,101,1.0,1.0,78,0.00,,,0.00,Wunderground v.1.15,2013-06-02 09:12:00,
2013-06-02 04:17:00,50.1,43.5,29.85,NNE,33,1.0,1.0,78,0.00,,,0.00,Wunderground v.1.15,2013-06-02 09:17:00,
2013-06-02 04:22:00,50.2,43.6,29.85,ESE,103,1.0,2.0,78,0.00,,,0.00,Wunderground v.1.15,2013-06-02 09:22:00,
2013-06-02 04:28:00,50.2,43.9,29.85,ENE,61,1.0,2.0,79,0.00,,,0.00,Wunderground v.1.15,2013-06-02 09:28:00,
2013-06-02 04:33:00,50.2,43.6,29.85,East,91,1.0,1.0,78,0.00,,,0.00,Wunderground v.1.15,2013-06-02 09:33:00,
2013-06-02 04:38:00,50.2,43.9,29.85,East,82,1.0,1.0,79,0.00,,,0.00,Wunderground v.1.15,2013-06-02 09:38:00,
2013-06-02 04:43:00,50.2,43.9,29.85,East,93,0.0,1.0,79,0.00,,,0.00,Wunderground v.1.15,2013-06-02 09:43:00,
2013-06-02 04:48:00,50.1,43.8,29.85,East,93,0.0,1.0,79,0.00,,,0.00,Wunderground v.1.15,2013-06-02 09:48:00,
2013-06-02 04:54:00,50.2,44.3,29.85,ENE,73,0.0,2.0,80,0.00,,,0.00,Wunderground v.1.15,2013-06-02 09:54:00,
2013-06-02 04:59:00,50.2,43.9,29.86,East,84,1.0,2.0,79,0.00,,,0.00,Wunderground v.1.15,2013-06-02 09:59:00,
2013-06-02 05:04:00,50.2,44.3,29.86,SW,226,1.0,1.0,80,0.00,,,0.00,Wunderground v.1.15,2013-06-02 10:04:00,
2013-06-02 05:09:00,50.1,44.5,29.86,NNE,30,1.0,2.0,81,0.00,,,0.00,Wunderground v.1.15,2013-06-02 10:09:00,
2013-06-02 05:14:00,50.1,44.5,29.86,ENE,65,1.0,2.0,81,0.00,,,0.00,Wunderground v.1.15,2013-06-02 10:14:00,
2013-06-02 05:20:00,50.0,44.7,29.86,ENE,65,2.0,2.0,82,0.00,,,0.00,Wunderground v.1.15,2013-06-02 10:20:00,
2013-06-02 05:25:00,49.9,44.0,29.87,NNE,16,1.0,2.0,80,0.00,,,0.00,Wunderground v.1.15,2013-06-02 10:25:00,
2013-06-02 05:30:00,49.9,43.3,29.87,NNE,23,2.0,2.0,78,0.00,,,0.00,Wunderground v.1.15,2013-06-02 10:30:00,
2013-06-02 05:35:00,49.9,42.6,29.87,NE,50,1.0,2.0,76,0.00,,,0.00,Wunderground v.1.15,2013-06-02 10:35:00,
2013-06-02 05:40:00,49.9,43.0,29.87,NNE,32,1.0,1.0,77,0.00,,,0.00,Wunderground v.1.15,2013-06-02 10:40:00,
2013-06-02 05:46:00,49.9,42.6,29.87,NE,34,1.0,1.0,76,0.00,,,0.00,Wunderground v.1.15,2013-06-02 10:46:00,
2013-06-02 05:51:00,49.9,43.3,29.87,ESE,104,0.0,1.0,78,0.00,,,0.00,Wunderground v.1.15,2013-06-02 10:51:00,
2013-06-02 05:56:00,50.0,44.1,29.87,ENE,77,0.0,1.0,80,0.00,,,0.00,Wunderground v.1.15,2013-06-02 10:56:00,
2013-06-02 06:01:00,49.9,44.3,29.87,NE,39,0.0,1.0,81,0.00,,,0.00,Wunderground v.1.15,2013-06-02 11:01:00,
2013-06-02 06:06:00,49.8,43.9,29.88,North,356,0.0,1.0,80,0.00,,,0.00,Wunderground v.1.15,2013-06-02 11:06:00,
2013-06-02 06:12:00,49.5,43.9,29.88,East,82,0.0,2.0,81,0.00,,,0.00,Wunderground v.1.15,2013-06-02 11:12:00,
2013-06-02 06:17:00,49.3,43.7,29.88,SSW,193,1.0,2.0,81,0.00,,,0.00,Wunderground v.1.15,2013-06-02 11:17:00,
2013-06-02 06:22:00,49.1,43.8,29.89,NW,308,0.0,1.0,82,0.00,,,0.00,Wunderground v.1.15,2013-06-02 11:22:00,
2013-06-02 06:27:00,48.9,44.0,29.89,NNE,32,0.0,2.0,83,0.00,,,0.00,Wunderground v.1.15,2013-06-02 11:27:00,
2013-06-02 06:32:00,48.9,44.3,29.89,West,271,0.0,1.0,84,0.00,,,0.00,Wunderground v.1.15,2013-06-02 11:32:00,
2013-06-02 06:38:00,48.9,44.3,29.89,ENE,65,0.0,1.0,84,0.00,,,0.00,Wunderground v.1.15,2013-06-02 11:38:00,
2013-06-02 06:43:00,49.0,44.4,29.90,ENE,63,0.0,1.0,84,0.00,,,0.00,Wunderground v.1.15,2013-06-02 11:43:00,
2013-06-02 06:48:00,49.0,44.4,29.90,East,79,0.0,1.0,84,0.00,,,0.00,Wunderground v.1.15,2013-06-02 11:48:00,
2013-06-02 06:53:00,49.0,44.4,29.90,ENE,77,0.0,1.0,84,0.00,,,0.00,Wunderground v.1.15,2013-06-02 11:53:00,
2013-06-02 06:58:00,49.1,44.2,29.90,East,95,0.0,2.0,83,0.00,,,0.00,Wunderground v.1.15,2013-06-02 11:58:00,
2013-06-02 07:04:00,49.1,44.2,29.90,SE,143,0.0,1.0,83,0.00,,,0.00,Wunderground v.1.15,2013-06-02 12:04:00,
2013-06-02 07:09:00,49.1,43.8,29.90,NE,43,1.0,2.0,82,0.00,,,0.00,Wunderground v.1.15,2013-06-02 12:09:00,
2013-06-02 07:14:00,49.2,43.6,29.90,NE,55,1.0,4.0,81,0.00,,,0.00,Wunderground v.1.15,2013-06-02 12:14:00,
2013-06-02 07:19:00,49.3,42.7,29.90,NNE,32,1.0,4.0,78,0.00,,,0.00,Wunderground v.1.15,2013-06-02 12:19:00,
2013-06-02 07:24:00,49.5,42.9,29.91,ENE,57,2.0,2.0,78,0.00,,,0.00,Wunderground v.1.15,2013-06-02 12:24:00,
2013-06-02 07:29:00,49.6,42.7,29.91,NE,43,2.0,3.0,77,0.00,,,0.00,Wunderground v.1.15,2013-06-02 12:29:00,
2013-06-02 07:34:00,49.7,42.4,29.91,NNE,33,1.0,2.0,76,0.00,,,0.00,Wunderground v.1.15,2013-06-02 12:34:00,
2013-06-02 07:39:00,50.1,42.8,29.91,ENE,57,2.0,8.0,76,0.00,,,0.00,Wunderground v.1.15,2013-06-02 12:39:00,
2013-06-02 07:44:00,50.4,42.8,29.91,ENE,72,2.0,2.0,75,0.00,,,0.00,Wunderground v.1.15,2013-06-02 12:44:00,
2013-06-02 07:49:00,50.5,42.5,29.91,ENE,65,2.0,4.0,74,0.00,,,0.00,Wunderground v.1.15,2013-06-02 12:49:00,
2013-06-02 07:54:00,50.6,42.3,29.91,North,350,2.0,3.0,73,0.00,,,0.00,Wunderground v.1.15,2013-06-02 12:54:00,
2013-06-02 08:00:00,51.0,43.0,29.92,NE,46,1.0,1.0,74,0.00,,,0.00,Wunderground v.1.15,2013-06-02 13:00:00,
2013-06-02 08:05:00,51.5,43.5,29.92,NE,56,1.0,1.0,74,0.00,,,0.00,Wunderground v.1.15,2013-06-02 13:05:00,
2013-06-02 08:10:00,51.8,43.4,29.92,SE,127,1.0,1.0,73,0.00,,,0.00,Wunderground v.1.15,2013-06-02 13:10:00,
2013-06-02 08:15:00,51.9,43.5,29.92,NNW,335,1.0,3.0,73,0.00,,,0.00,Wunderground v.1.15,2013-06-02 13:15:00,
2013-06-02 08:20:00,51.7,42.6,29.92,ENE,60,1.0,1.0,71,0.00,,,0.00,Wunderground v.1.15,2013-06-02 13:20:00,
2013-06-02 08:26:00,51.2,42.8,29.93,East,84,1.0,4.0,73,0.00,,,0.00,Wunderground v.1.15,2013-06-02 13:26:00,
2013-06-02 08:31:00,50.9,42.9,29.93,ESE,123,1.0,2.0,74,0.00,,,0.00,Wunderground v.1.15,2013-06-02 13:31:00,
2013-06-02 08:36:00,50.9,43.3,29.93,ENE,57,1.0,3.0,75,0.00,,,0.00,Wunderground v.1.15,2013-06-02 13:36:00,
2013-06-02 08:41:00,51.0,43.0,29.93,North,356,1.0,1.0,74,0.00,,,0.00,Wunderground v.1.15,2013-06-02 13:41:00,
2013-06-02 08:46:00,51.5,43.1,29.93,West,278,1.0,2.0,73,0.00,,,0.00,Wunderground v.1.15,2013-06-02 13:46:00,
2013-06-02 08:52:00,51.6,42.9,29.93,SW,228,1.0,2.0,72,0.00,,,0.00,Wunderground v.1.15,2013-06-02 13:52:00,
2013-06-02 08:57:00,51.7,43.3,29.93,ENE,70,1.0,3.0,73,0.00,,,0.00,Wunderground v.1.15,2013-06-02 13:57:00,
2013-06-02 09:02:00,51.8,42.7,29.93,NE,48,1.0,1.0,71,0.00,,,0.00,Wunderground v.1.15,2013-06-02 14:02:00,
2013-06-02 09:07:00,51.9,43.2,29.93,East,82,1.0,2.0,72,0.00,,,0.00,Wunderground v.1.15,2013-06-02 14:07:00,
2013-06-02 09:12:00,52.2,43.1,29.93,ESE,103,1.0,5.0,71,0.00,,,0.00,Wunderground v.1.15,2013-06-02 14:12:00,
2013-06-02 09:18:00,52.7,44.6,29.93,ENE,76,1.0,5.0,74,0.00,,,0.00,Wunderground v.1.15,2013-06-02 14:18:00,
2013-06-02 09:23:00,53.0,43.8,29.94,SE,131,1.0,2.0,71,0.00,,,0.00,Wunderground v.1.15,2013-06-02 14:23:00,
2013-06-02 09:28:00,53.1,43.2,29.94,SE,134,1.0,2.0,69,0.00,,,0.00,Wunderground v.1.15,2013-06-02 14:28:00,
2013-06-02 09:33:00,53.3,43.8,29.94,NNE,26,1.0,2.0,70,0.00,,,0.00,Wunderground v.1.15,2013-06-02 14:33:00,
2013-06-02 09:38:00,53.7,43.0,29.94,ENE,70,2.0,8.0,67,0.00,,,0.00,Wunderground v.1.15,2013-06-02 14:38:00,
2013-06-02 09:44:00,54.1,43.0,29.94,NNE,20,2.0,3.0,66,0.00,,,0.00,Wunderground v.1.15,2013-06-02 14:44:00,
2013-06-02 09:49:00,54.3,43.2,29.94,NNE,20,2.0,3.0,66,0.00,,,0.00,Wunderground v.1.15,2013-06-02 14:49:00,
2013-06-02 09:54:00,54.5,42.6,29.94,NNE,20,2.0,5.0,64,0.00,,,0.00,Wunderground v.1.15,2013-06-02 14:54:00,
2013-06-02 09:59:00,54.4,42.1,29.94,ENE,60,3.0,5.0,63,0.00,,,0.00,Wunderground v.1.15,2013-06-02 14:59:00,
2013-06-02 10:04:00,54.2,42.3,29.94,ESE,103,3.0,3.0,64,0.00,,,0.00,Wunderground v.1.15,2013-06-02 15:04:00,
2013-06-02 10:10:00,54.4,43.3,29.94,NW,319,2.0,2.0,66,0.00,,,0.00,Wunderground v.1.15,2013-06-02 15:10:00,
2013-06-02 10:15:00,55.1,42.7,29.94,East,98,2.0,3.0,63,0.00,,,0.00,Wunderground v.1.15,2013-06-02 15:15:00,
2013-06-02 10:20:00,55.9,42.6,29.94,NE,43,2.0,2.0,61,0.00,,,0.00,Wunderground v.1.15,2013-06-02 15:20:00,
2013-06-02 10:25:00,56.3,42.6,29.93,NE,52,2.0,4.0,60,0.00,,,0.00,Wunderground v.1.15,2013-06-02 15:25:00,
2013-06-02 10:30:00,57.0,43.2,29.93,North,10,2.0,2.0,60,0.00,,,0.00,Wunderground v.1.15,2013-06-02 15:30:00,
2013-06-02 10:36:00,57.4,43.6,29.93,North,354,2.0,3.0,60,0.00,,,0.00,Wunderground v.1.15,2013-06-02 15:36:00,
2013-06-02 10:41:00,57.1,42.5,29.93,NNE,25,2.0,4.0,58,0.00,,,0.00,Wunderground v.1.15,2013-06-02 15:41:00,
2013-06-02 10:46:00,56.8,43.1,29.93,North,349,3.0,5.0,60,0.00,,,0.00,Wunderground v.1.15,2013-06-02 15:46:00,
2013-06-02 10:51:00,57.4,42.7,29.93,ENE,64,2.0,2.0,58,0.00,,,0.00,Wunderground v.1.15,2013-06-02 15:51:00,
2013-06-02 10:56:00,57.7,42.1,29.93,ESE,120,1.0,3.0,56,0.00,,,0.00,Wunderground v.1.15,2013-06-02 15:56:00,
2013-06-02 11:01:00,58.0,42.8,29.93,ENE,57,2.0,2.0,57,0.00,,,0.00,Wunderground v.1.15,2013-06-02 16:01:00,
2013-06-02 11:07:00,58.5,43.8,29.93,NNE,23,2.0,3.0,58,0.00,,,0.00,Wunderground v.1.15,2013-06-02 16:07:00,
2013-06-02 11:12:00,58.6,43.4,29.93,NNE,15,2.0,2.0,57,0.00,,,0.00,Wunderground v.1.15,2013-06-02 16:12:00,
2013-06-02 11:17:00,58.4,43.2,29.93,East,82,2.0,3.0,57,0.00,,,0.00,Wunderground v.1.15,2013-06-02 16:17:00,
2013-06-02 11:22:00,58.2,42.1,29.93,SW,228,3.0,4.0,55,0.00,,,0.00,Wunderground v.1.15,2013-06-02 16:22:00,
2013-06-02 11:28:00,59.0,44.2,29.93,NNW,335,2.0,4.0,58,0.00,,,0.00,Wunderground v.1.15,2013-06-02 16:28:00,
2013-06-02 11:33:00,59.5,42.8,29.93,ENE,70,2.0,6.0,54,0.00,,,0.00,Wunderground v.1.15,2013-06-02 16:33:00,
2013-06-02 11:38:00,59.6,44.3,29.93,South,183,2.0,6.0,57,0.00,,,0.00,Wunderground v.1.15,2013-06-02 16:38:00,
2013-06-02 11:43:00,60.2,45.4,29.93,West,262,2.0,2.0,58,0.00,,,0.00,Wunderground v.1.15,2013-06-02 16:43:00,
2013-06-02 11:48:00,60.7,43.5,29.93,ENE,63,1.0,2.0,53,0.00,,,0.00,Wunderground v.1.15,2013-06-02 16:48:00,
2013-06-02 11:54:00,60.6,41.8,29.93,ENE,58,2.0,5.0,50,0.00,,,0.00,Wunderground v.1.15,2013-06-02 16:54:00,
2013-06-02 11:59:00,60.5,43.3,29.93,NNE,33,2.0,5.0,53,0.00,,,0.00,Wunderground v.1.15,2013-06-02 16:59:00,
2013-06-02 12:04:00,61.2,42.9,29.93,West,266,2.0,3.0,51,0.00,,,0.00,Wunderground v.1.15,2013-06-02 17:04:00,
2013-06-02 12:09:00,61.4,42.1,29.93,SE,127,2.0,4.0,49,0.00,,,0.00,Wunderground v.1.15,2013-06-02 17:09:00,
2013-06-02 12:14:00,61.6,43.8,29.93,NE,40,2.0,3.0,52,0.00,,,0.00,Wunderground v.1.15,2013-06-02 17:14:00,
2013-06-02 12:20:00,61.3,43.0,29.92,West,273,2.0,2.0,51,0.00,,,0.00,Wunderground v.1.15,2013-06-02 17:20:00,
2013-06-02 12:25:00,61.5,42.7,29.93,ENE,78,2.0,2.0,50,0.00,,,0.00,Wunderground v.1.15,2013-06-02 17:25:00,
2013-06-02 12:30:00,61.2,43.9,29.93,East,97,2.0,3.0,53,0.00,,,0.00,Wunderground v.1.15,2013-06-02 17:30:00,
2013-06-02 12:35:00,61.4,42.6,29.93,ESE,107,2.0,4.0,50,0.00,,,0.00,Wunderground v.1.15,2013-06-02 17:35:00,
2013-06-02 12:40:00,61.8,43.5,29.92,NE,54,2.0,2.0,51,0.00,,,0.00,Wunderground v.1.15,2013-06-02 17:40:00,
2013-06-02 12:45:00,62.4,45.0,29.93,SW,228,2.0,4.0,53,0.00,,,0.00,Wunderground v.1.15,2013-06-02 17:45:00,
2013-06-02 12:50:00,62.9,42.9,29.93,WSW,248,2.0,4.0,48,0.00,,,0.00,Wunderground v.1.15,2013-06-02 17:50:00,
2013-06-02 12:55:00,62.8,44.9,29.92,WSW,252,2.0,4.0,52,0.00,,,0.00,Wunderground v.1.15,2013-06-02 17:55:00,
2013-06-02 13:00:00,62.7,43.3,29.92,SW,218,2.0,2.0,49,0.00,,,0.00,Wunderground v.1.15,2013-06-02 18:00:00,
2013-06-02 13:05:00,62.6,43.2,29.92,West,262,3.0,5.0,49,0.00,,,0.00,Wunderground v.1.15,2013-06-02 18:05:00,
2013-06-02 13:10:00,63.1,45.2,29.92,NNE,13,2.0,2.0,52,0.00,,,0.00,Wunderground v.1.15,2013-06-02 18:10:00,
2013-06-02 13:16:00,63.5,43.4,29.92,NW,319,2.0,2.0,48,0.00,,,0.00,Wunderground v.1.15,2013-06-02 18:16:00,
2013-06-02 13:21:00,63.2,42.6,29.91,SW,226,2.0,3.0,47,0.00,,,0.00,Wunderground v.1.15,2013-06-02 18:21:00,
2013-06-02 13:26:00,63.3,45.9,29.92,WNW,290,2.0,6.0,53,0.00,,,0.00,Wunderground v.1.15,2013-06-02 18:26:00,
2013-06-02 13:31:00,63.6,45.6,29.92,WNW,287,2.0,2.0,52,0.00,,,0.00,Wunderground v.1.15,2013-06-02 18:31:00,
2013-06-02 13:36:00,62.9,41.8,29.92,West,259,3.0,6.0,46,0.00,,,0.00,Wunderground v.1.15,2013-06-02 18:36:00,
2013-06-02 13:42:00,63.1,45.2,29.92,East,82,2.0,2.0,52,0.00,,,0.00,Wunderground v.1.15,2013-06-02 18:42:00,
2013-06-02 13:47:00,63.9,44.9,29.92,NE,52,1.0,2.0,50,0.00,,,0.00,Wunderground v.1.15,2013-06-02 18:47:00,
2013-06-02 13:52:00,64.7,44.0,29.92,ENE,61,2.0,2.0,47,0.00,,,0.00,Wunderground v.1.15,2013-06-02 18:52:00,
2013-06-02 13:57:00,64.0,42.2,29.91,ENE,72,2.0,2.0,45,0.00,,,0.00,Wunderground v.1.15,2013-06-02 18:57:00,
2013-06-02 14:02:00,63.5,44.0,29.91,SW,231,2.0,4.0,49,0.00,,,0.00,Wunderground v.1.15,2013-06-02 19:02:00,
2013-06-02 14:08:00,63.5,44.0,29.91,NE,34,3.0,5.0,49,0.00,,,0.00,Wunderground v.1.15,2013-06-02 19:08:00,
2013-06-02 14:13:00,63.9,44.4,29.91,SW,233,3.0,3.0,49,0.00,,,0.00,Wunderground v.1.15,2013-06-02 19:13:00,
2013-06-02 14:18:00,62.8,43.3,29.91,WSW,253,3.0,9.0,49,0.00,,,0.00,Wunderground v.1.15,2013-06-02 19:18:00,
2013-06-02 14:23:00,62.9,44.0,29.91,West,278,4.0,4.0,50,0.00,,,0.00,Wunderground v.1.15,2013-06-02 19:23:00,
2013-06-02 14:28:00,63.7,44.7,29.91,West,263,3.0,4.0,50,0.00,,,0.00,Wunderground v.1.15,2013-06-02 19:28:00,
2013-06-02 14:34:00,64.7,45.6,29.92,East,85,2.0,6.0,50,0.00,,,0.00,Wunderground v.1.15,2013-06-02 19:34:00,
2013-06-02 14:39:00,64.9,44.2,29.91,South,173,2.0,6.0,47,0.00,,,0.00,Wunderground v.1.15,2013-06-02 19:39:00,
2013-06-02 14:44:00,64.3,44.2,29.91,West,269,3.0,5.0,48,0.00,,,0.00,Wunderground v.1.15,2013-06-02 19:44:00,
2013-06-02 14:49:00,64.5,44.9,29.91,ENE,61,2.0,5.0,49,0.00,,,0.00,Wunderground v.1.15,2013-06-02 19:49:00,
2013-06-02 14:54:00,64.9,42.5,29.91,WSW,256,2.0,4.0,44,0.00,,,0.00,Wunderground v.1.15,2013-06-02 19:54:00,
2013-06-02 15:00:00,64.4,45.3,29.91,ENE,75,3.0,3.0,50,0.00,,,0.00,Wunderground v.1.15,2013-06-02 20:00:00,
2013-06-02 15:05:00,65.0,44.3,29.90,ENE,72,2.0,5.0,47,0.00,,,0.00,Wunderground v.1.15,2013-06-02 20:05:00,
2013-06-02 15:10:00,65.1,44.4,29.90,SSW,193,2.0,2.0,47,0.00,,,0.00,Wunderground v.1.15,2013-06-02 20:10:00,
2013-06-02 15:15:00,65.0,43.1,29.90,SSW,210,2.0,2.0,45,0.00,,,0.00,Wunderground v.1.15,2013-06-02 20:15:00,
2013-06-02 15:20:00,65.7,43.8,29.90,SSW,212,2.0,2.0,45,0.00,,,0.00,Wunderground v.1.15,2013-06-02 20:20:00,
2013-06-02 15:26:00,65.9,42.1,29.90,SW,229,2.0,3.0,42,0.00,,,0.00,Wunderground v.1.15,2013-06-02 20:26:00,
2013-06-02 15:31:00,65.9,45.1,29.90,WSW,250,2.0,2.0,47,0.00,,,0.00,Wunderground v.1.15,2013-06-02 20:31:00,
2013-06-02 15:36:00,66.3,45.5,29.90,NNW,330,1.0,4.0,47,0.00,,,0.00,Wunderground v.1.15,2013-06-02 20:36:00,
2013-06-02 15:41:00,66.9,47.6,29.90,West,271,1.0,3.0,50,0.00,,,0.00,Wunderground v.1.15,2013-06-02 20:41:00,
2013-06-02 15:46:00,66.7,45.3,29.90,SE,133,2.0,4.0,46,0.00,,,0.00,Wunderground v.1.15,2013-06-02 20:46:00,
2013-06-02 15:52:00,66.1,45.3,29.90,WSW,240,2.0,3.0,47,0.00,,,0.00,Wunderground v.1.15,2013-06-02 20:52:00,
2013-06-02 15:57:00,66.0,44.0,29.89,WSW,238,3.0,4.0,45,0.00,,,0.00,Wunderground v.1.15,2013-06-02 20:57:00,
2013-06-02 16:02:00,65.1,43.2,29.90,WSW,255,3.0,4.0,45,0.00,,,0.00,Wunderground v.1.15,2013-06-02 21:02:00,
2013-06-02 16:07:00,65.0,44.8,29.90,SW,232,3.0,4.0,48,0.00,,,0.00,Wunderground v.1.15,2013-06-02 21:07:00,
2013-06-02 16:12:00,65.4,42.9,29.90,West,273,2.0,3.0,44,0.00,,,0.00,Wunderground v.1.15,2013-06-02 21:12:00,
2013-06-02 16:17:00,65.9,43.9,29.90,NE,51,2.0,3.0,45,0.00,,,0.00,Wunderground v.1.15,2013-06-02 21:17:00,
2013-06-02 16:22:00,66.2,43.6,29.89,North,352,1.0,2.0,44,0.00,,,0.00,Wunderground v.1.15,2013-06-02 21:22:00,
2013-06-02 16:27:00,66.8,44.2,29.89,NNE,21,1.0,2.0,44,0.00,,,0.00,Wunderground v.1.15,2013-06-02 21:27:00,
2013-06-02 16:32:00,66.4,44.4,29.89,East,84,2.0,4.0,45,0.00,,,0.00,Wunderground v.1.15,2013-06-02 21:32:00,
2013-06-02 16:38:00,66.5,45.1,29.89,West,267,2.0,5.0,46,0.00,,,0.00,Wunderground v.1.15,2013-06-02 21:38:00,
2013-06-02 16:43:00,66.6,45.7,29.89,North,8,1.0,2.0,47,0.00,,,0.00,Wunderground v.1.15,2013-06-02 21:43:00,
2013-06-02 16:48:00,67.3,43.4,29.89,South,183,2.0,2.0,42,0.00,,,0.00,Wunderground v.1.15,2013-06-02 21:48:00,
2013-06-02 16:53:00,67.2,45.1,29.89,West,276,1.0,5.0,45,0.00,,,0.00,Wunderground v.1.15,2013-06-02 21:53:00,
2013-06-02 16:58:00,67.4,44.7,29.89,ENE,72,1.0,5.0,44,0.00,,,0.00,Wunderground v.1.15,2013-06-02 21:58:00,
2013-06-02 17:03:00,66.5,43.9,29.89,NNW,344,1.0,3.0,44,0.00,,,0.00,Wunderground v.1.15,2013-06-02 22:03:00,
2013-06-02 17:08:00,66.0,43.5,29.89,WSW,250,2.0,4.0,44,0.00,,,0.00,Wunderground v.1.15,2013-06-02 22:08:00,
2013-06-02 17:14:00,66.3,44.9,29.89,SW,228,1.0,2.0,46,0.00,,,0.00,Wunderground v.1.15,2013-06-02 22:14:00,
2013-06-02 17:19:00,66.3,43.7,29.88,East,81,1.0,4.0,44,0.00,,,0.00,Wunderground v.1.15,2013-06-02 22:19:00,
2013-06-02 17:24:00,66.1,43.5,29.88,WSW,255,2.0,3.0,44,0.00,,,0.00,Wunderground v.1.15,2013-06-02 22:24:00,
2013-06-02 17:29:00,66.2,45.9,29.88,WSW,240,1.0,5.0,48,0.00,,,0.00,Wunderground v.1.15,2013-06-02 22:29:00,
2013-06-02 17:34:00,65.8,43.9,29.88,NNE,15,1.0,3.0,45,0.00,,,0.00,Wunderground v.1.15,2013-06-02 22:34:00,
2013-06-02 17:40:00,65.6,43.1,29.88,West,259,1.0,2.0,44,0.00,,,0.00,Wunderground v.1.15,2013-06-02 22:40:00,
2013-06-02 17:45:00,65.5,45.3,29.88,SE,133,1.0,3.0,48,0.00,,,0.00,Wunderground v.1.15,2013-06-02 22:45:00,
2013-06-02 17:50:00,65.3,43.4,29.88,SW,224,1.0,1.0,45,0.00,,,0.00,Wunderground v.1.15,2013-06-02 22:50:00,
2013-06-02 17:55:00,65.2,45.5,29.87,WSW,257,0.0,1.0,49,0.00,,,0.00,Wunderground v.1.15,2013-06-02 22:55:00,
2013-06-02 18:00:00,65.1,44.9,29.87,West,262,0.0,1.0,48,0.00,,,0.00,Wunderground v.1.15,2013-06-02 23:00:00,
2013-06-02 18:06:00,64.8,44.1,29.87,ENE,68,0.0,1.0,47,0.00,,,0.00,Wunderground v.1.15,2013-06-02 23:06:00,
2013-06-02 18:11:00,64.7,42.9,29.87,SE,144,0.0,1.0,45,0.00,,,0.00,Wunderground v.1.15,2013-06-02 23:11:00,
2013-06-02 18:16:00,64.6,42.2,29.87,South,174,0.0,1.0,44,0.00,,,0.00,Wunderground v.1.15,2013-06-02 23:16:00,
2013-06-02 18:21:00,64.3,41.9,29.87,WSW,253,1.0,2.0,44,0.00,,,0.00,Wunderground v.1.15,2013-06-02 23:21:00,
2013-06-02 18:26:00,64.1,44.0,29.87,West,259,1.0,2.0,48,0.00,,,0.00,Wunderground v.1.15,2013-06-02 23:26:00,
2013-06-02 18:32:00,64.2,44.6,29.87,WNW,285,0.0,1.0,49,0.00,,,0.00,Wunderground v.1.15,2013-06-02 23:32:00,
2013-06-02 18:37:00,64.5,45.4,29.87,West,267,0.0,1.0,50,0.00,,,0.00,Wunderground v.1.15,2013-06-02 23:37:00,
2013-06-02 18:42:00,64.5,43.8,29.87,WNW,282,1.0,2.0,47,0.00,,,0.00,Wunderground v.1.15,2013-06-02 23:42:00,
2013-06-02 18:47:00,64.2,46.2,29.87,WNW,286,1.0,2.0,52,0.00,,,0.00,Wunderground v.1.15,2013-06-02 23:47:00,
2013-06-02 18:52:00,64.1,44.5,29.88,WNW,287,0.0,1.0,49,0.00,,,0.00,Wunderground v.1.15,2013-06-02 23:52:00,
2013-06-02 18:58:00,63.8,44.3,29.87,WSW,238,0.0,1.0,49,0.00,,,0.00,Wunderground v.1.15,2013-06-02 23:58:00,
2013-06-02 19:03:00,63.7,44.2,29.87,WSW,248,1.0,2.0,49,0.00,,,0.00,Wunderground v.1.15,2013-06-03 00:03:00,
2013-06-02 19:08:00,63.6,42.4,29.87,West,274,1.0,3.0,46,0.00,,,0.00,Wunderground v.1.15,2013-06-03 00:08:00,
2013-06-02 19:13:00,63.5,44.5,29.87,WSW,257,2.0,2.0,50,0.00,,,0.00,Wunderground v.1.15,2013-06-03 00:13:00,
2013-06-02 19:18:00,63.5,44.0,29.87,East,88,1.0,2.0,49,0.00,,,0.00,Wunderground v.1.15,2013-06-03 00:18:00,
2013-06-02 19:24:00,63.4,44.4,29.87,SE,131,1.0,2.0,50,0.00,,,0.00,Wunderground v.1.15,2013-06-03 00:24:00,
2013-06-02 19:29:00,63.2,42.6,29.87,East,82,0.0,2.0,47,0.00,,,0.00,Wunderground v.1.15,2013-06-03 00:29:00,
2013-06-02 19:34:00,63.3,45.4,29.87,West,259,0.0,1.0,52,0.00,,,0.00,Wunderground v.1.15,2013-06-03 00:34:00,
2013-06-02 19:39:00,63.3,44.3,29.87,WSW,240,0.0,1.0,50,0.00,,,0.00,Wunderground v.1.15,2013-06-03 00:39:00,
2013-06-02 19:44:00,63.2,44.8,29.87,WSW,240,0.0,1.0,51,0.00,,,0.00,Wunderground v.1.15,2013-06-03 00:44:00,
2013-06-02 19:50:00,62.9,44.0,29.87,ESE,112,0.0,1.0,50,0.00,,,0.00,Wunderground v.1.15,2013-06-03 00:50:00,
2013-06-02 19:55:00,62.5,42.5,29.87,SW,222,0.0,2.0,48,0.00,,,0.00,Wunderground v.1.15,2013-06-03 00:55:00,
2013-06-02 20:00:00,62.2,42.8,29.87,West,273,0.0,1.0,49,0.00,,,0.00,Wunderground v.1.15,2013-06-03 01:00:00,
2013-06-02 20:05:00,62.1,43.7,29.87,West,273,0.0,1.0,51,0.00,,,0.00,Wunderground v.1.15,2013-06-03 01:05:00,
2013-06-02 20:10:00,61.8,45.5,29.87,West,273,0.0,1.0,55,0.00,,,0.00,Wunderground v.1.15,2013-06-03 01:10:00,
2013-06-02 20:16:00,61.3,44.0,29.87,West,273,0.0,1.0,53,0.00,,,0.00,Wunderground v.1.15,2013-06-03 01:16:00,
2013-06-02 20:21:00,60.9,44.1,29.87,West,273,0.0,1.0,54,0.00,,,0.00,Wunderground v.1.15,2013-06-03 01:21:00,
2013-06-02 20:26:00,60.7,43.9,29.87,West,273,0.0,1.0,54,0.00,,,0.00,Wunderground v.1.15,2013-06-03 01:26:00,
2013-06-02 20:31:00,60.4,44.6,29.87,West,273,0.0,1.0,56,0.00,,,0.00,Wunderground v.1.15,2013-06-03 01:31:00,
2013-06-02 20:36:00,60.1,44.8,29.87,West,273,0.0,1.0,57,0.00,,,0.00,Wunderground v.1.15,2013-06-03 01:36:00,
2013-06-02 20:42:00,59.7,44.4,29.87,West,273,0.0,1.0,57,0.00,,,0.00,Wunderground v.1.15,2013-06-03 01:42:00,
2013-06-02 20:47:00,59.5,47.3,29.87,West,273,0.0,1.0,64,0.00,,,0.00,Wunderground v.1.15,2013-06-03 01:47:00,
2013-06-02 20:52:00,59.0,45.6,29.87,West,273,0.0,1.0,61,0.00,,,0.00,Wunderground v.1.15,2013-06-03 01:52:00,
2013-06-02 20:57:00,58.4,44.6,29.87,West,273,0.0,1.0,60,0.00,,,0.00,Wunderground v.1.15,2013-06-03 01:57:00,
2013-06-02 21:02:00,58.0,45.0,29.86,West,273,0.0,1.0,62,0.00,,,0.00,Wunderground v.1.15,2013-06-03 02:02:00,
2013-06-02 21:08:00,57.5,45.8,29.87,West,273,0.0,1.0,65,0.00,,,0.00,Wunderground v.1.15,2013-06-03 02:08:00,
2013-06-02 21:13:00,57.3,46.0,29.87,West,273,0.0,1.0,66,0.00,,,0.00,Wunderground v.1.15,2013-06-03 02:13:00,
2013-06-02 21:18:00,57.0,46.5,29.87,West,273,0.0,1.0,68,0.00,,,0.00,Wunderground v.1.15,2013-06-03 02:18:00,
2013-06-02 21:23:00,56.6,45.8,29.87,West,273,0.0,1.0,67,0.00,,,0.00,Wunderground v.1.15,2013-06-03 02:23:00,
2013-06-02 21:28:00,56.3,45.9,29.87,West,273,0.0,1.0,68,0.00,,,0.00,Wunderground v.1.15,2013-06-03 02:28:00,
2013-06-02 21:34:00,55.9,45.5,29.87,West,273,0.0,1.0,68,0.00,,,0.00,Wunderground v.1.15,2013-06-03 02:34:00,
2013-06-02 21:39:00,55.6,46.0,29.87,West,273,0.0,1.0,70,0.00,,,0.00,Wunderground v.1.15,2013-06-03 02:39:00,
2013-06-02 21:44:00,55.4,45.8,29.87,West,273,0.0,1.0,70,0.00,,,0.00,Wunderground v.1.15,2013-06-03 02:44:00,
2013-06-02 21:49:00,55.3,47.2,29.88,West,273,0.0,1.0,74,0.00,,,0.00,Wunderground v.1.15,2013-06-03 02:49:00,
2013-06-02 21:54:00,55.2,46.7,29.88,West,273,0.0,1.0,73,0.00,,,0.00,Wunderground v.1.15,2013-06-03 02:54:00,
2013-06-02 22:00:00,54.7,45.1,29.88,West,273,0.0,1.0,70,0.00,,,0.00,Wunderground v.1.15,2013-06-03 03:00:00,
2013-06-02 22:05:00,54.6,46.8,29.88,West,273,0.0,1.0,75,0.00,,,0.00,Wunderground v.1.15,2013-06-03 03:05:00,
2013-06-02 22:10:00,54.6,47.2,29.88,West,273,0.0,1.0,76,0.00,,,0.00,Wunderground v.1.15,2013-06-03 03:10:00,
2013-06-02 22:15:00,54.2,45.7,29.88,West,273,0.0,1.0,73,0.00,,,0.00,Wunderground v.1.15,2013-06-03 03:15:00,
2013-06-02 22:20:00,54.0,45.5,29.88,West,273,0.0,1.0,73,0.00,,,0.00,Wunderground v.1.15,2013-06-03 03:20:00,
2013-06-02 22:26:00,53.9,46.5,29.88,West,273,0.0,1.0,76,0.00,,,0.00,Wunderground v.1.15,2013-06-03 03:26:00,
2013-06-02 22:31:00,53.9,47.2,29.89,West,273,0.0,1.0,78,0.00,,,0.00,Wunderground v.1.15,2013-06-03 03:31:00,
2013-06-02 22:36:00,53.8,47.1,29.88,West,273,0.0,1.0,78,0.00,,,0.00,Wunderground v.1.15,2013-06-03 03:36:00,
2013-06-02 22:41:00,53.6,46.9,29.88,West,273,0.0,1.0,78,0.00,,,0.00,Wunderground v.1.15,2013-06-03 03:41:00,
2013-06-02 22:46:00,53.4,47.0,29.88,West,273,0.0,1.0,79,0.00,,,0.00,Wunderground v.1.15,2013-06-03 03:46:00,
2013-06-02 22:52:00,53.3,47.6,29.88,West,273,0.0,1.0,81,0.00,,,0.00,Wunderground v.1.15,2013-06-03 03:52:00,
2013-06-02 22:57:00,53.2,47.8,29.89,West,273,0.0,1.0,82,0.00,,,0.00,Wunderground v.1.15,2013-06-03 03:57:00,
2013-06-02 23:02:00,53.1,47.7,29.89,West,273,0.0,1.0,82,0.00,,,0.00,Wunderground v.1.15,2013-06-03 04:02:00,
2013-06-02 23:03:00,53.1,47.7,29.89,West,273,0.0,1.0,82,0.00,,,0.00,Wunderground v.1.15,2013-06-03 04:03:00,
2013-06-02 23:06:00,53.1,48.1,29.89,West,273,0.0,1.0,83,0.00,,,0.00,Wunderground v.1.15,2013-06-03 04:06:00,
2013-06-02 23:11:00,53.0,47.7,29.89,West,273,0.0,1.0,82,0.00,,,0.00,Wunderground v.1.15,2013-06-03 04:11:00,
2013-06-02 23:16:00,52.8,47.5,29.89,West,273,0.0,1.0,82,0.00,,,0.00,Wunderground v.1.15,2013-06-03 04:16:00,
2013-06-02 23:20:00,52.7,47.0,29.89,West,273,0.0,1.0,81,0.00,,,0.00,Wunderground v.1.15,2013-06-03 04:20:00,
2013-06-02 23:25:00,52.8,47.1,29.89,West,273,0.0,1.0,81,0.00,,,0.00,Wunderground v.1.15,2013-06-03 04:25:00,
2013-06-02 23:30:00,53.0,48.3,29.89,West,273,0.0,1.0,84,0.00,,,0.00,Wunderground v.1.15,2013-06-03 04:30:00,
2013-06-02 23:36:00,53.2,48.5,29.89,West,273,0.0,1.0,84,0.00,,,0.00,Wunderground v.1.15,2013-06-03 04:36:00,
2013-06-02 23:41:00,53.1,48.7,29.89,West,273,0.0,1.0,85,0.00,,,0.00,Wunderground v.1.15,2013-06-03 04:41:00,
2013-06-02 23:46:00,52.9,48.2,29.89,West,273,0.0,1.0,84,0.00,,,0.00,Wunderground v.1.15,2013-06-03 04:46:00,
2013-06-02 23:51:00,52.8,48.4,29.89,West,273,0.0,1.0,85,0.00,,,0.00,Wunderground v.1.15,2013-06-03 04:51:00,
2013-06-02 23:57:00,52.5,47.5,29.89,West,273,0.0,1.0,83,0.00,,,0.00,Wunderground v.1.15,2013-06-03 04:57:00,